CW1035 Weather Reports


Display with metric or nautical units.
time (UTC)temp
F
wind
direction
speed
MPH
gust
MPH
rain 1hr
in
rain 24hr
in
rain mn
in
humidity
%
barometer
mb
20260504060140 63 243 2.0 5.0 0.00 0.00 0.00 52 1010.2
20260504050639 66 269 3.0 4.0 0.00 0.00 0.00 44 1010.5
20260504050139 67 259 2.0 4.0 0.00 0.00 0.00 45 1010.5
20260504045638 67 268 1.0 4.0 0.00 0.00 0.00 45 1010.4
20260504045139 67 259 2.0 4.0 0.00 0.00 0.00 45 1010.4
20260504044639 66 255 3.0 4.0 0.00 0.00 0.00 45 1010.3
20260504044138 66 253 1.0 4.0 0.00 0.00 0.00 47 1010.3
20260504043638 66 273 4.0 4.0 0.00 0.00 0.00 47 1010.4
20260504043138 67 252 2.0 4.0 0.00 0.00 0.00 47 1010.4
20260504042638 67 278 2.0 4.0 0.00 0.00 0.00 45 1010.3
20260504041638 67 259 0.0 0.0 0.00 0.00 0.00 45 1010.3
20260504041138 68 257 0.0 3.0 0.00 0.00 0.00 46 1010.4
20260504040637 68 257 0.0 5.0 0.00 0.00 0.00 45 1010.4
20260504040138 68 264 1.0 5.0 0.00 0.00 0.00 45 1010.4
20260504035637 68 255 3.0 3.0 0.00 0.00 0.00 44 1010.3
20260504035137 68 264 2.0 3.0 0.00 0.00 0.00 43 1010.3
20260504034637 69 272 0.0 3.0 0.00 0.00 0.00 43 1010.3
20260504034137 69 262 0.0 3.0 0.00 0.00 0.00 42 1010.2
20260504033637 69 277 0.0 0.0 0.00 0.00 0.00 42 1010.2
20260504033137 70 271 0.0 2.0 0.00 0.00 0.00 41 1010.2
20260504032637 70 264 0.0 2.0 0.00 0.00 0.00 41 1010.2
20260504031637 71 293 2.0 3.0 0.00 0.00 0.00 41 1010.2
20260504030637 72 256 0.0 2.0 0.00 0.00 0.00 39 1010.2
20260504030207 72 255 1.0 3.0 0.00 0.00 0.00 38 1010.2
20260504025707 73 256 0.0 3.0 0.00 0.00 0.00 37 1010.2
20260504025136 73 269 0.0 4.0 0.00 0.00 0.00 37 1010.2
20260504024636 73 281 0.0 4.0 0.00 0.00 0.00 38 1010.3
20260504024207 74 272 0.0 5.0 0.00 0.00 0.00 38 1010.4
20260504023706 74 310 3.0 5.0 0.00 0.00 0.00 38 1010.4
20260504023207 74 278 0.0 4.0 0.00 0.00 0.00 38 1010.4
20260504022636 74 259 0.0 4.0 0.00 0.00 0.00 38 1010.5
20260504022206 74 278 1.0 5.0 0.00 0.00 0.00 37 1010.5
20260504021136 74 281 1.0 7.0 0.00 0.00 0.00 38 1010.5
20260504020636 74 283 3.0 6.0 0.00 0.00 0.00 38 1010.6
20260504015705 75 273 3.0 7.0 0.00 0.00 0.00 40 1010.7
20260504015206 74 290 3.0 7.0 0.00 0.00 0.00 39 1010.8
20260504014705 75 279 3.0 7.0 0.00 0.00 0.00 39 1010.8
20260504014205 75 278 3.0 8.0 0.00 0.00 0.00 40 1010.9
20260504013705 74 269 2.0 8.0 0.00 0.00 0.00 40 1010.9
20260504013205 74 311 1.0 7.0 0.00 0.00 0.00 41 1010.8
20260504012635 74 290 3.0 7.0 0.00 0.00 0.00 41 1010.9
20260504012205 74 248 3.0 7.0 0.00 0.00 0.00 41 1011.0
20260504011705 73 263 0.0 6.0 0.00 0.00 0.00 42 1011.0
20260504011134 73 282 4.0 8.0 0.00 0.00 0.00 42 1011.1
20260504010634 73 285 2.0 8.0 0.00 0.00 0.00 42 1011.1
20260504010205 73 297 1.0 8.0 0.00 0.00 0.00 42 1011.2
20260504005704 74 351 4.0 7.0 0.00 0.00 0.00 42 1011.3
20260504004634 75 17 6.0 6.0 0.00 0.00 0.00 41 1011.4
20260504003704 75 328 4.0 8.0 0.00 0.00 0.00 40 1011.6
20260504003204 75 293 1.0 8.0 0.00 0.00 0.00 42 1011.6
20260504002704 74 281 0.0 9.0 0.00 0.00 0.00 43 1011.7
20260504001704 75 311 8.0 11.0 0.00 0.00 0.00 41 1011.6
20260504001203 75 240 0.0 11.0 0.00 0.00 0.00 41 1011.6
20260504000703 75 285 6.0 7.0 0.00 0.00 0.00 40 1011.7
20260504000204 74 257 0.0 11.0 0.00 0.00 0.00 41 1011.8
20260503235703 74 306 1.0 11.0 0.00 0.00 0.00 39 1011.8
20260503235134 74 282 6.0 8.0 0.00 0.00 0.00 39 1011.9
20260503234703 74 255 5.0 9.0 0.00 0.00 0.00 40 1011.9
20260503234203 74 296 3.0 9.0 0.00 0.00 0.00 40 1012.0
20260503233703 74 309 6.0 10.0 0.00 0.00 0.00 40 1012.0
20260503233203 74 321 6.0 10.0 0.00 0.00 0.00 40 1012.1
20260503232703 73 270 3.0 11.0 0.00 0.00 0.00 42 1012.1
20260503232202 73 264 6.0 11.0 0.00 0.00 0.00 41 1012.3
20260503231702 73 277 1.0 8.0 0.00 0.00 0.00 41 1012.3
20260503231202 74 276 7.0 9.0 0.00 0.00 0.00 41 1012.4
20260503230702 73 246 3.0 12.0 0.00 0.00 0.00 42 1012.4
20260503230203 73 257 3.0 12.0 0.00 0.00 0.00 41 1012.5
20260503225703 74 278 6.0 11.0 0.00 0.00 0.00 40 1012.5
20260503225203 74 338 0.0 11.0 0.00 0.00 0.00 40 1012.6
20260503224202 73 277 1.0 10.0 0.00 0.00 0.00 40 1012.7
20260503223702 73 302 3.0 10.0 0.00 0.00 0.00 40 1012.8
20260503223202 73 291 8.0 9.0 0.00 0.00 0.00 39 1012.9
20260503222702 73 240 4.0 9.0 0.00 0.00 0.00 40 1013.0
20260503222201 72 319 4.0 10.0 0.00 0.00 0.00 41 1013.0
20260503221201 72 37 4.0 9.0 0.00 0.00 0.00 43 1013.2
20260503220701 72 271 4.0 8.0 0.00 0.00 0.00 45 1013.3
20260503220202 71 315 1.0 10.0 0.00 0.00 0.00 46 1013.3
20260503215701 71 292 4.0 10.0 0.00 0.00 0.00 46 1013.3
20260503215201 71 292 5.0 10.0 0.00 0.00 0.00 46 1013.4
20260503214701 71 272 9.0 11.0 0.00 0.00 0.00 46 1013.4
20260503213200 71 290 5.0 9.0 0.00 0.00 0.00 51 1013.6
20260503212201 70 274 3.0 11.0 0.00 0.00 0.00 54 1013.7
20260503211700 70 300 3.0 11.0 0.00 0.00 0.00 54 1013.7
20260503211200 69 264 3.0 10.0 0.00 0.00 0.00 55 1013.7
20260503210700 69 280 4.0 8.0 0.00 0.00 0.00 56 1013.7
20260503210200 69 255 4.0 10.0 0.00 0.00 0.00 56 1013.9
20260503205700 69 288 3.0 10.0 0.00 0.00 0.00 55 1013.9
20260503204700 69 284 2.0 9.0 0.00 0.00 0.00 55 1013.9
20260503204200 69 335 2.0 9.0 0.00 0.00 0.00 54 1014.0
20260503203700 68 308 7.0 8.0 0.00 0.00 0.00 54 1013.9
20260503203200 68 340 1.0 8.0 0.00 0.00 0.00 53 1014.0
20260503201700 68 347 4.0 10.0 0.00 0.00 0.00 55 1014.0
20260503201159 68 319 7.0 9.0 0.00 0.00 0.00 54 1014.0
20260503200659 68 283 2.0 9.0 0.00 0.00 0.00 55 1014.2
20260503200159 69 295 5.0 8.0 0.00 0.00 0.00 55 1014.2
20260503195659 68 278 3.0 7.0 0.00 0.00 0.00 56 1014.4
20260503195159 68 269 4.0 9.0 0.00 0.00 0.00 57 1014.3
20260503194659 67 303 2.0 9.0 0.00 0.00 0.00 58 1014.5
20260503194158 67 32 4.0 9.0 0.00 0.00 0.00 59 1014.6
20260503193658 66 285 6.0 10.0 0.00 0.00 0.00 59 1014.6
20260503192158 66 347 6.0 8.0 0.00 0.00 0.00 59 1014.8
20260503191659 66 11 4.0 9.0 0.00 0.00 0.00 60 1014.8
20260503190658 66 34 3.0 8.0 0.00 0.00 0.00 61 1014.9
20260503190158 66 317 1.0 8.0 0.00 0.00 0.00 60 1014.9
20260503185158 66 304 5.0 10.0 0.00 0.00 0.00 60 1015.0
20260503183157 65 300 5.0 10.0 0.00 0.00 0.00 62 1015.1
20260503182658 65 284 7.0 10.0 0.00 0.00 0.00 61 1015.2
20260503182158 65 264 2.0 9.0 0.00 0.00 0.00 63 1015.2
20260503181657 65 322 4.0 10.0 0.00 0.00 0.00 62 1015.3
20260503181157 64 247 0.0 10.0 0.00 0.00 0.00 65 1015.3
20260503180657 64 276 7.0 10.0 0.00 0.00 0.00 63 1015.4
20260503180157 64 301 2.0 11.0 0.00 0.00 0.00 64 1015.4
20260503175657 64 283 3.0 11.0 0.00 0.00 0.00 64 1015.5
20260503175156 64 270 5.0 11.0 0.00 0.00 0.00 66 1015.5
20260503174657 63 271 6.0 11.0 0.00 0.00 0.00 67 1015.5
20260503174156 63 330 3.0 11.0 0.00 0.00 0.00 67 1015.6
20260503173656 63 271 6.0 12.0 0.00 0.00 0.00 66 1015.6
20260503173157 62 338 2.0 12.0 0.00 0.00 0.00 68 1015.6
20260503172656 62 223 2.0 10.0 0.00 0.00 0.00 69 1015.6
20260503172156 62 262 7.0 11.0 0.00 0.00 0.00 68 1015.6
20260503171656 62 295 2.0 11.0 0.00 0.00 0.00 67 1015.7
20260503171156 62 288 3.0 10.0 0.00 0.00 0.00 68 1015.8
20260503170656 62 274 5.0 10.0 0.00 0.00 0.00 67 1015.8
20260503170156 62 293 4.0 10.0 0.00 0.00 0.00 68 1015.8
20260503160155 62 274 7.0 9.0 0.00 0.00 0.00 69 1015.9
20260503150654 60 258 0.0 8.0 0.00 0.00 0.00 71 1016.0
20260503150154 60 288 5.0 11.0 0.00 0.00 0.00 70 1016.1
20260503140153 60 300 5.0 8.0 0.00 0.00 0.00 69 1015.6
20260503131152 59 244 4.0 7.0 0.00 0.00 0.00 70 1015.5
20260503130652 59 253 4.0 5.0 0.00 0.00 0.00 69 1015.5
20260503130152 59 265 2.0 4.0 0.00 0.00 0.00 69 1015.6
20260503110650 59 283 2.0 6.0 0.00 0.00 0.00 67 1015.7
20260503110149 59 264 3.0 6.0 0.00 0.00 0.00 67 1015.8
20260503100148 57 293 4.0 4.0 0.00 0.00 0.00 71 1015.6
20260503090148 55 253 3.0 5.0 0.00 0.00 0.00 78 1015.6
20260503080646 55 278 2.0 7.0 0.00 0.00 0.00 78 1015.5
20260503080147 55 273 3.0 8.0 0.00 0.00 0.00 77 1015.5
20260503072646 56 291 4.0 7.0 0.00 0.00 0.00 75 1015.4
20260503072146 57 252 5.0 7.0 0.00 0.00 0.00 75 1015.4
20260503071646 57 281 2.0 6.0 0.00 0.00 0.00 74 1015.4
20260503071146 57 278 4.0 6.0 0.00 0.00 0.00 73 1015.4
20260503070646 58 236 2.0 7.0 0.00 0.00 0.00 73 1015.4
20260503070146 58 289 6.0 7.0 0.00 0.00 0.00 71 1015.4